This is the latest recevied weather packets stored in our database for station/object K1WJY. If no packets are shown the sender has not sent any weather packets the latest 10 day(s).
| Time | Temp. | Humidity | Pressure | Rain* | Wind** | Luminosity | Snow |
|---|---|---|---|---|---|---|---|
| 1787495536 | 18.89° C | 99% | 1015.1 hPa | 0 mm | - | 118 W/m² | - |
| 1787495232 | 18.89° C | 99% | 1015.3 hPa | 0 mm | - | 137 W/m² | - |
| 1787494928 | 18.89° C | 99% | 1015.4 hPa | 0 mm | - | 161 W/m² | - |
| 1787494627 | 18.89° C | 99% | 1015.3 hPa | 0 mm | - | 165 W/m² | - |
| 1787494322 | 18.89° C | 99% | 1015.2 hPa | 0 mm | - | 111 W/m² | - |
| 1787494018 | 18.89° C | 99% | 1015.3 hPa | 0 mm | - | 123 W/m² | - |
| 1787493715 | 18.89° C | 99% | 1015.1 hPa | 0 mm | - | 143 W/m² | - |
| 1787493414 | 18.33° C | 99% | 1015 hPa | 0 mm | - | 150 W/m² | - |
| 1787493111 | 18.89° C | 99% | 1015.1 hPa | 0 mm | - | 122 W/m² | - |
| 1787492805 | 18.33° C | 99% | 1015.1 hPa | 0 mm | - | 144 W/m² | - |
| 1787492502 | 18.33° C | 99% | 1015.2 hPa | 0 mm | - | 141 W/m² | - |
| 1787492197 | 18.33° C | 99% | 1015.4 hPa | 0 mm | - | 111 W/m² | - |
| 1787491892 | 18.33° C | 99% | 1015.2 hPa | 0 mm | - | 116 W/m² | - |
| 1787491587 | 18.33° C | 99% | 1015.2 hPa | 0 mm | - | 107 W/m² | - |
| 1787491283 | 18.33° C | 99% | 1015.3 hPa | 0 mm | - | 92 W/m² | - |
| 1787490978 | 18.33° C | 99% | 1015.1 hPa | 0 mm | - | 86 W/m² | - |
| 1787490674 | 17.78° C | 99% | 1015.2 hPa | 0 mm | - | 71 W/m² | - |
| 1787490373 | 17.78° C | 99% | 1015.2 hPa | 0 mm | - | 74 W/m² | - |
| 1787490072 | 17.78° C | 99% | 1015.4 hPa | 0 mm | - | 68 W/m² | - |
| 1787489767 | 17.78° C | 99% | 1015.2 hPa | 0 mm | - | 65 W/m² | - |
| 1787489463 | 17.78° C | 99% | 1015 hPa | 0 mm | - | 79 W/m² | - |
| 1787489158 | 17.78° C | 99% | 1015.1 hPa | 0 mm | - | 72 W/m² | - |
| 1787488854 | 17.78° C | 99% | 1015 hPa | 0 mm | - | 68 W/m² | - |
| 1787488549 | 17.78° C | 99% | 1015.4 hPa | 0 mm | - | 55 W/m² | - |
| 1787488245 | 17.78° C | 99% | 1015.4 hPa | 0 mm | - | 52 W/m² | - |
* Rain latest hour (hover to see other rain measurements)
** Current wind speed in m/s (hover to see current wind gust speed)